Carmi, IL

7:19 PM CST on February 05, 2016 (GMT -0600)
Carmi Municipal

Weather History for KCUL - November, 2013

Change the Weather History Date:

Tuesday, November 26, 2013

  Actual Average (KEVV) Record (KEVV)
Temperature  
Mean Temperature 34 °F 42 °F  
Max Temperature 41 °F 51 °F 78 °F (1965)
Min Temperature 28 °F 33 °F 12 °F (1977)
Degree Days  
Heating Degree Days 30 23  
Month to date heating degree days 462  
Since 1 July heating degree days 765  
Cooling Degree Days 0 0  
Month to date cooling degree days 0  
Year to date cooling degree days 1395  
Moisture  
Dew Point 28 °F    
Average Humidity 72    
Maximum Humidity 90    
Minimum Humidity 54    
Precipitation  
Precipitation 0.00 in 0.15 in 2.06 in (1973)
Month to date precipitation 3.73  
Year to date precipitation 40.95  
Snow  
Snow 0.00 in 0.00 in 1.70 in (1975)
Month to date snowfall 0.1  
Since 1 July snowfall 0.3  
Since 1 September snowfall 0.3  
Snow Depth -    
Sea Level Pressure  
Sea Level Pressure 30.09 in    
Wind  
Wind Speed 6 mph (NNW)    
Max Wind Speed 25 mph    
Max Gust Speed 30 mph    
Visibility 10 miles    
Events      
T = Trace of Precipitation, MM = Missing Value Source: NWS Daily Summary

Daily Weather History Graph

Daily Weather History Graph

Search for Another Location

Airport or City:

Trip Planner

Search our weather history database for the weather conditions in past years. The results will help you decide how hot, cold, wet, or windy it might be!

Date:

Astronomy

Nov. 26, 2013 Rise Set
Actual Time 6:45 AM CST 4:34 PM CST
Civil Twilight 6:16 AM CST 5:03 PM CST
Nautical Twilight 5:43 AM CST 5:35 PM CST
Astronomical Twilight 5:12 AM CST 6:07 PM CST
Moon No Moon Rise 12:35 PM CST (11/26)
Length of Visible Light 10h 46m
Length of Day
9h 49m
Last Quarter, 41% of the Moon is Illuminated
Nov 26
Last Quarter
Dec 2
New
Dec 9
First Quarter
Dec 17
Full
Dec 25
Last Quarter

Hourly Weather History & Observations

Time (CST) Temp. Windchill Dew Point Humidity Pressure Visibility Wind Dir Wind Speed Gust Speed Precip Events Conditions
12:15 AM 35.2 °F 32.4 °F 30.7 °F 84% 30.20 in 10.0 mi SSW 3.5 mph - N/A   Mostly Cloudy
12:35 AM 35.2 °F 31.2 °F 31.3 °F 85% 30.20 in 10.0 mi WNW 4.6 mph - N/A   Mostly Cloudy
12:55 AM 35.1 °F - 31.3 °F 86% 30.20 in 10.0 mi Calm Calm - N/A   Mostly Cloudy
1:15 AM 35.2 °F - 31.5 °F 86% 30.19 in 10.0 mi Calm Calm - N/A   Mostly Cloudy
1:35 AM 34.9 °F 32.0 °F 32.0 °F 89% 30.19 in 10.0 mi NW 3.5 mph - N/A   Mostly Cloudy
1:55 AM 34.9 °F - 31.6 °F 88% 30.17 in 10.0 mi Calm Calm - N/A   Mostly Cloudy
2:15 AM 35.2 °F - 32.0 °F 88% 30.18 in 10.0 mi Calm Calm - N/A   Overcast
2:35 AM 35.4 °F - 32.0 °F 87% 30.16 in 10.0 mi Calm Calm - N/A   Overcast
2:55 AM 34.9 °F - 32.0 °F 89% 30.17 in 10.0 mi Calm Calm - N/A   Overcast
3:15 AM 34.9 °F - 32.0 °F 89% 30.15 in 10.0 mi Calm Calm - N/A   Overcast
3:35 AM 34.7 °F - 32.0 °F 90% 30.15 in 10.0 mi Calm Calm - N/A   Overcast
3:55 AM 34.7 °F 31.8 °F 32.0 °F 90% 30.13 in 10.0 mi NNW 3.5 mph - N/A   Overcast
4:15 AM 34.7 °F 30.6 °F 31.8 °F 89% 30.13 in 10.0 mi NW 4.6 mph - N/A   Overcast
4:35 AM 34.7 °F 29.6 °F 31.5 °F 88% 30.11 in 10.0 mi NNW 5.8 mph - N/A   Overcast
4:55 AM 34.3 °F 29.2 °F 30.7 °F 87% 30.09 in 10.0 mi North 5.8 mph - N/A   Overcast
5:15 AM 34.0 °F 31.0 °F 30.4 °F 87% 30.10 in 10.0 mi North 3.5 mph - N/A   Overcast
5:35 AM 34.3 °F - 30.2 °F 85% 30.10 in 10.0 mi Calm Calm - N/A   Overcast
5:55 AM 34.3 °F - 30.0 °F 84% 30.12 in 10.0 mi Calm Calm - N/A   Overcast
6:15 AM 34.3 °F 30.2 °F 30.0 °F 84% 30.09 in 10.0 mi NNE 4.6 mph - N/A   Overcast
6:35 AM 34.3 °F 30.2 °F 30.4 °F 85% 30.08 in 10.0 mi North 4.6 mph - N/A   Overcast
6:55 AM 34.3 °F 31.4 °F 30.0 °F 84% 30.10 in 10.0 mi North 3.5 mph - N/A   Overcast
7:15 AM 34.7 °F 31.8 °F 29.5 °F 81% 30.11 in 10.0 mi NNW 3.5 mph - N/A   Overcast
7:35 AM 34.7 °F 29.6 °F 28.6 °F 78% 30.10 in 10.0 mi North 5.8 mph - N/A   Overcast
7:55 AM 34.9 °F 30.8 °F 28.6 °F 78% 30.12 in 10.0 mi NNW 4.6 mph - N/A   Overcast
8:15 AM 35.2 °F 31.2 °F 28.9 °F 78% 30.12 in 10.0 mi North 4.6 mph - N/A   Overcast
8:35 AM 35.6 °F 31.7 °F 28.8 °F 76% 30.11 in 10.0 mi North 4.6 mph - N/A   Overcast
8:55 AM 35.4 °F 29.0 °F 28.8 °F 77% 30.10 in 10.0 mi North 8.1 mph - N/A   Overcast
9:15 AM 35.6 °F 29.9 °F 28.2 °F 75% 30.11 in 10.0 mi North 6.9 mph - N/A   Overcast
9:35 AM 36.0 °F 32.1 °F 27.5 °F 71% 30.13 in 10.0 mi North 4.6 mph - N/A   Overcast
9:55 AM 36.5 °F 31.0 °F 27.5 °F 70% 30.13 in 10.0 mi NNW 6.9 mph - N/A   Overcast
10:15 AM 36.5 °F 31.0 °F 28.0 °F 71% 30.10 in 10.0 mi NNW 6.9 mph - N/A   Overcast
10:35 AM 36.9 °F 30.7 °F 28.0 °F 70% 30.07 in 10.0 mi North 8.1 mph - N/A   Overcast
10:55 AM 37.6 °F 31.6 °F 27.9 °F 68% 30.07 in 10.0 mi NNW 8.1 mph - N/A   Scattered Clouds
11:15 AM 37.8 °F 32.5 °F 28.0 °F 68% 30.07 in 10.0 mi North 6.9 mph - N/A   Mostly Cloudy
11:35 AM 38.1 °F 31.7 °F 27.7 °F 66% 30.06 in 10.0 mi North 9.2 mph - N/A   Overcast
11:55 AM 38.3 °F 33.2 °F 28.0 °F 67% 30.06 in 10.0 mi North 6.9 mph - N/A   Overcast
12:15 PM 38.3 °F 33.2 °F 28.0 °F 67% 30.05 in 10.0 mi North 6.9 mph - N/A   Overcast
12:35 PM 38.3 °F 33.9 °F 27.5 °F 65% 30.04 in 10.0 mi North 5.8 mph - N/A   Overcast
12:55 PM 38.7 °F 34.3 °F 27.1 °F 63% 30.03 in 10.0 mi North 5.8 mph - N/A   Overcast
1:15 PM 39.2 °F 33.0 °F 27.3 °F 62% 30.02 in 10.0 mi NNW 9.2 mph - N/A   Overcast
1:35 PM 39.4 °F 32.3 °F 27.0 °F 61% 30.01 in 10.0 mi NNW 11.5 mph - N/A   Overcast
1:55 PM 39.7 °F 33.2 °F 27.0 °F 60% 30.01 in 10.0 mi NNW 10.4 mph - N/A   Overcast
2:15 PM 39.9 °F 33.9 °F 27.9 °F 62% 30.01 in 10.0 mi NNW 9.2 mph - N/A   Overcast
2:35 PM 40.1 °F 34.7 °F 28.0 °F 62% 30.00 in 10.0 mi NNW 8.1 mph - N/A   Mostly Cloudy
2:55 PM 40.3 °F 36.3 °F 28.4 °F 63% 30.01 in 10.0 mi NNW 5.8 mph - N/A   Scattered Clouds
3:15 PM 41.0 °F 33.5 °F 28.9 °F 62% 30.00 in 10.0 mi NNW 13.8 mph - N/A   Clear
3:35 PM 41.0 °F 32.8 °F 27.7 °F 59% 30.00 in 10.0 mi NNW 16.1 mph 19.6 mph N/A   Scattered Clouds
3:55 PM 40.5 °F 34.1 °F 28.0 °F 61% 30.01 in 10.0 mi North 10.4 mph - N/A   Overcast
4:15 PM 40.5 °F 35.1 °F 28.4 °F 62% 30.02 in 10.0 mi NNW 8.1 mph - N/A   Overcast
4:35 PM 40.3 °F 34.9 °F 28.8 °F 63% 30.02 in 10.0 mi NNW 8.1 mph - N/A   Overcast
4:55 PM 40.3 °F 34.9 °F 28.9 °F 64% 30.02 in 10.0 mi NW 8.1 mph - N/A   Overcast
5:15 PM 39.7 °F 31.5 °F 29.3 °F 66% 30.03 in 10.0 mi NNW 15.0 mph 26.5 mph N/A   Overcast
5:35 PM 38.8 °F 30.0 °F 28.6 °F 67% 30.05 in 10.0 mi NNW 16.1 mph - N/A   Overcast
5:55 PM 38.5 °F 30.7 °F 28.4 °F 67% 30.05 in 10.0 mi NW 12.7 mph 20.7 mph N/A   Overcast
6:15 PM 38.3 °F 28.7 °F 27.1 °F 64% 30.06 in 10.0 mi NNW 18.4 mph 25.3 mph N/A   Overcast
6:35 PM 38.3 °F 30.5 °F 27.5 °F 65% 30.07 in 10.0 mi NW 12.7 mph - N/A   Overcast
6:55 PM 38.1 °F 28.4 °F 27.5 °F 66% 30.07 in 10.0 mi NW 18.4 mph 24.2 mph N/A   Overcast
7:15 PM 36.9 °F 25.4 °F 25.5 °F 64% 30.07 in 10.0 mi NW 24.2 mph 28.8 mph N/A   Overcast
7:35 PM 36.7 °F 26.3 °F 25.3 °F 64% 30.08 in 10.0 mi NNW 19.6 mph - N/A   Overcast
7:55 PM 36.5 °F 27.0 °F 26.4 °F 67% 30.09 in 10.0 mi NW 16.1 mph 28.8 mph N/A   Overcast
8:15 PM 35.8 °F 26.1 °F 27.3 °F 71% 30.10 in 10.0 mi NW 16.1 mph 20.7 mph N/A   Overcast
8:35 PM 35.2 °F 25.0 °F 25.0 °F 66% 30.10 in 10.0 mi NNW 17.3 mph 27.6 mph N/A   Overcast
8:55 PM 34.9 °F 24.6 °F 23.7 °F 64% 30.10 in 10.0 mi NW 17.3 mph 23.0 mph N/A   Overcast
9:15 PM 34.7 °F 24.0 °F 23.0 °F 62% 30.10 in 10.0 mi NW 18.4 mph 24.2 mph N/A   Overcast
9:35 PM 33.8 °F 21.3 °F 21.6 °F 61% 30.11 in 10.0 mi NW 24.2 mph 29.9 mph N/A   Overcast
9:55 PM 33.3 °F 21.2 °F 20.5 °F 59% 30.11 in 10.0 mi NW 21.9 mph 27.6 mph N/A   Overcast
10:15 PM 32.9 °F 22.4 °F 20.8 °F 61% 30.12 in 10.0 mi NW 16.1 mph 29.9 mph N/A   Overcast
10:35 PM 32.0 °F 19.2 °F 20.5 °F 63% 30.13 in 10.0 mi NW 23.0 mph 29.9 mph N/A   Overcast
10:55 PM 30.9 °F 18.1 °F 17.6 °F 58% 30.13 in 10.0 mi NW 21.9 mph 27.6 mph N/A   Overcast
11:15 PM 29.7 °F 15.5 °F 14.9 °F 54% 30.14 in 10.0 mi NW 25.3 mph 29.9 mph N/A   Overcast
11:35 PM 28.8 °F 17.5 °F 16.0 °F 59% 30.14 in 10.0 mi NW 15.0 mph 23.0 mph N/A   Overcast
11:55 PM 28.0 °F 15.7 °F 14.7 °F 57% 30.14 in 10.0 mi NW 17.3 mph 28.8 mph N/A   Overcast